Flag for France Weather past 2 weeks in Rouen, France

Now
50 °F

Clear.


Feels Like: 45 °F
Forecast: 43 / 62 °F
Wind: 15 mph from Northeast

Location: Rouen Airport

Current Time: Apr 18, 2015 at 10:53:00 PM

Latest Report: Apr 18, 2015 at 10:30 PM


Visibility: N/A

Pressure: 30.18 "Hg

Humidity: 50%

Dew point: 32 °F

Location of RouenLocation

Historic Weather in Rouen — Graph

°F

Rouen temperature yesterday

Maximum temperature yesterday: 61 °F (at 1:30 PM)
Minimum temperature yesterday: 50 °F (at 8:00 AM)
Average temperature yesterday: 55 °F

Past Weeks' High & Low Weather Summary

 TemperatureHumidityPressure
High79 °F (Apr 15, 4:00 PM)100% (Apr 3, 11:00 PM)30.63 "Hg (Apr 3, 11:00 PM)
Low34 °F (Apr 5, 4:30 AM)23% (Apr 15, 5:30 PM)29.83 "Hg (Apr 16, 5:00 PM)
Average53 °F67%30.24 "Hg
* Reported Apr 3 9:00 PM — Apr 18 9:30 PM, Rouen, Weather by CustomWeather, © 2015

Note: Actual official high and low records may vary slightly from our data, if they occured in-between our weather recording intervals... More about our weather records

Advertising

Rouen weather history for previous 24 hours

 ConditionsComfort  
Time TempWeatherWind HumidityBarometerVisibility
9:30 PM
Sat, Apr 18
52 °FClear.15 mph47%30.15 "HgN/A
9:00 PM54 °FClear.15 mph41%30.15 "HgN/A
8:30 PM54 °FClear.16 mph44%30.15 "HgN/A
8:00 PM55 °FClear.16 mph41%30.15 "HgN/A
7:30 PM57 °FClear.15 mph41%30.15 "HgN/A
7:00 PM57 °FClear.17 mph44%30.15 "HgN/A
6:30 PM59 °FClear.17 mph42%30.15 "HgN/A
6:00 PM59 °FClear.20 mph42%30.15 "HgN/A
5:30 PM59 °FClear.20 mph42%30.15 "HgN/A
5:00 PM59 °FClear.20 mph39%30.18 "HgN/A
4:30 PM59 °FClear.20 mph39%30.18 "HgN/A
4:00 PM59 °FClear.20 mph39%30.18 "HgN/A
3:30 PM59 °FClear.20 mph42%30.18 "HgN/A
3:00 PM59 °FClear.22 mph42%30.18 "HgN/A
2:30 PM59 °FClear.18 mph42%30.18 "HgN/A
2:00 PM57 °FClear.18 mph44%30.21 "HgN/A
1:30 PM55 °FClear.21 mph44%30.21 "HgN/A
1:00 PM55 °FClear.20 mph44%30.21 "HgN/A
12:30 PM55 °FClear.20 mph44%30.21 "HgN/A
12:00 PM54 °FClear.18 mph51%30.21 "HgN/A
11:30 AM54 °FClear.18 mph51%30.24 "HgN/A
11:00 AM52 °FClear.18 mph54%30.21 "HgN/A
10:30 AM52 °FClear.15 mph54%30.24 "HgN/A
10:00 AM50 °FClear.15 mph58%30.21 "HgN/A
9:30 AM48 °FPassing clouds.14 mph62%30.21 "HgN/A
9:00 AM46 °FClear.12 mph66%30.21 "HgN/A
8:30 AM45 °FClear.14 mph71%30.21 "HgN/A
8:00 AM43 °FClear.14 mph76%30.21 "HgN/A
7:30 AM43 °FClear.15 mph76%30.18 "HgN/A
7:00 AM41 °FClear.14 mph81%30.18 "HgN/A
6:30 AM43 °FClear.16 mph76%30.18 "HgN/A
6:00 AM43 °FClear.13 mph76%30.18 "HgN/A
5:30 AM43 °FClear.14 mph81%30.18 "HgN/A
5:00 AM43 °FClear.13 mph81%30.18 "HgN/A
4:30 AM43 °FClear.15 mph81%30.18 "HgN/A
4:00 AM43 °FClear.14 mph81%30.18 "HgN/A
3:30 AM43 °FClear.14 mph81%30.18 "HgN/A
3:00 AM45 °FClear.15 mph81%30.18 "HgN/A
2:30 AM45 °FClear.14 mph81%30.18 "HgN/A
2:00 AM46 °FClear.14 mph82%30.18 "HgN/A
1:30 AM48 °FClear.13 mph76%30.15 "HgN/A
1:00 AM48 °FClear.13 mph76%30.15 "HgN/A
12:30 AM50 °FClear.14 mph71%30.15 "HgN/A
12:00 AM50 °FClear.15 mph71%30.12 "HgN/A
11:30 PM
Fri, Apr 17
52 °FClear.15 mph67%30.12 "HgN/A
10:30 PM52 °FClear.12 mph58%30.12 "HgN/A
10:00 PM54 °FClear.10 mph54%30.09 "HgN/A
Weather by CustomWeather, © 2015

See weather overviewHow to use our weather pages